| time (UTC) | temp F | wind direction | speed knots | gust knots | rain 1hr in | rain 24hr in | rain mn in | humidity % | barometer mb |
| 20260507151142 | 55 | 355 | 0.0 | 0.9 | 0.00 | 0.00 | 0.00 | 81 | 1013.7 |
| 20260507150654 | 55 | 355 | 0.0 | 0.9 | 0.00 | 0.00 | 0.00 | 81 | 1013.7 |
| 20260507150145 | 55 | 355 | 0.0 | 0.9 | 0.00 | 0.00 | 0.00 | 80 | 1013.7 |
| 20260507145649 | 54 | 355 | 0.0 | 0.9 | 0.00 | 0.00 | 0.00 | 80 | 1013.5 |
| 20260507145140 | 55 | 311 | 0.0 | 0.0 | 0.00 | 0.00 | 0.00 | 80 | 1013.6 |
| 20260507144650 | 55 | 311 | 0.0 | 0.0 | 0.00 | 0.00 | 0.00 | 80 | 1013.5 |
| 20260507144145 | 55 | 311 | 0.0 | 0.0 | 0.00 | 0.00 | 0.00 | 80 | 1013.6 |
| 20260507143654 | 55 | 311 | 0.0 | 0.0 | 0.00 | 0.00 | 0.00 | 80 | 1013.6 |
| 20260507143146 | 55 | 311 | 0.0 | 0.0 | 0.00 | 0.00 | 0.00 | 80 | 1013.5 |
| 20260507142658 | 55 | 311 | 0.0 | 0.0 | 0.00 | 0.00 | 0.00 | 80 | 1013.5 |
| 20260507142148 | 55 | 311 | 0.0 | 0.0 | 0.00 | 0.00 | 0.00 | 79 | 1013.5 |
| 20260507141637 | 55 | 311 | 0.0 | 0.0 | 0.00 | 0.00 | 0.00 | 79 | 1013.5 |
| 20260507141149 | 55 | 311 | 0.0 | 0.0 | 0.00 | 0.00 | 0.00 | 78 | 1013.5 |
| 20260507140640 | 55 | 311 | 0.0 | 0.9 | 0.00 | 0.00 | 0.00 | 78 | 1013.5 |
| 20260507140151 | 55 | 311 | 0.0 | 0.0 | 0.00 | 0.00 | 0.00 | 78 | 1013.5 |
| 20260507135651 | 55 | 311 | 0.0 | 0.9 | 0.00 | 0.00 | 0.00 | 78 | 1013.5 |
| 20260507135142 | 55 | 311 | 0.0 | 0.9 | 0.00 | 0.00 | 0.00 | 78 | 1013.5 |
| 20260507134652 | 55 | 311 | 0.0 | 0.9 | 0.00 | 0.00 | 0.00 | 78 | 1013.5 |
| 20260507134143 | 56 | 311 | 0.0 | 0.9 | 0.00 | 0.00 | 0.00 | 78 | 1013.5 |
| 20260507133655 | 56 | 311 | 0.0 | 0.9 | 0.00 | 0.00 | 0.00 | 78 | 1013.5 |
| 20260507133145 | 56 | 311 | 0.0 | 0.9 | 0.00 | 0.00 | 0.00 | 78 | 1013.5 |
| 20260507132655 | 56 | 311 | 0.0 | 0.9 | 0.00 | 0.00 | 0.00 | 79 | 1013.4 |
| 20260507132149 | 55 | 311 | 0.0 | 0.9 | 0.00 | 0.00 | 0.00 | 79 | 1013.4 |
| 20260507131658 | 55 | 311 | 0.0 | 0.0 | 0.00 | 0.00 | 0.00 | 78 | 1013.3 |
| 20260507131147 | 55 | 311 | 0.0 | 0.9 | 0.00 | 0.00 | 0.00 | 78 | 1013.3 |
| 20260507130641 | 55 | 311 | 0.0 | 0.9 | 0.00 | 0.00 | 0.00 | 77 | 1013.3 |
| 20260507130149 | 55 | 311 | 0.0 | 0.0 | 0.00 | 0.00 | 0.00 | 77 | 1013.3 |
| 20260507125656 | 55 | 311 | 0.0 | 0.0 | 0.00 | 0.00 | 0.00 | 76 | 1013.3 |
| 20260507125143 | 56 | 311 | 0.0 | 0.9 | 0.00 | 0.00 | 0.00 | 76 | 1013.2 |
| 20260507124653 | 56 | 311 | 0.0 | 0.9 | 0.00 | 0.00 | 0.00 | 76 | 1013.2 |
| 20260507124144 | 56 | 311 | 0.0 | 0.9 | 0.00 | 0.00 | 0.00 | 75 | 1013.1 |
| 20260507123640 | 56 | 311 | 0.0 | 0.9 | 0.00 | 0.00 | 0.00 | 74 | 1013.2 |
| 20260507123150 | 56 | 311 | 0.0 | 0.0 | 0.00 | 0.00 | 0.00 | 74 | 1013.1 |
| 20260507122640 | 57 | 311 | 0.0 | 0.9 | 0.00 | 0.00 | 0.00 | 72 | 1013.1 |
| 20260507122152 | 57 | 311 | 0.0 | 0.9 | 0.00 | 0.00 | 0.00 | 72 | 1013.0 |
| 20260507121641 | 58 | 311 | 0.0 | 0.0 | 0.00 | 0.00 | 0.00 | 71 | 1012.9 |
| 20260507121152 | 58 | 311 | 0.0 | 0.9 | 0.00 | 0.00 | 0.00 | 71 | 1012.9 |
| 20260507120641 | 59 | 311 | 0.0 | 0.9 | 0.00 | 0.00 | 0.00 | 71 | 1012.9 |
| 20260507120151 | 59 | 311 | 0.0 | 0.9 | 0.00 | 0.00 | 0.00 | 73 | 1012.8 |
| 20260507115658 | 59 | 311 | 0.0 | 0.9 | 0.00 | 0.00 | 0.00 | 76 | 1012.8 |
| 20260507115148 | 58 | 311 | 0.0 | 0.9 | 0.00 | 0.00 | 0.00 | 76 | 1012.8 |
| 20260507114656 | 57 | 308 | 0.0 | 1.7 | 0.00 | 0.00 | 0.00 | 75 | 1012.7 |
| 20260507114146 | 56 | 308 | 0.0 | 1.7 | 0.00 | 0.00 | 0.00 | 73 | 1012.8 |
| 20260507113657 | 57 | 308 | 0.0 | 1.7 | 0.00 | 0.00 | 0.00 | 73 | 1012.8 |
| 20260507113146 | 57 | 308 | 0.0 | 2.6 | 0.00 | 0.00 | 0.00 | 72 | 1012.7 |
| 20260507112658 | 57 | 308 | 0.0 | 3.5 | 0.00 | 0.00 | 0.00 | 71 | 1012.7 |
| 20260507112147 | 57 | 308 | 0.0 | 3.5 | 0.00 | 0.00 | 0.00 | 71 | 1012.8 |
| 20260507111659 | 58 | 297 | 0.0 | 2.6 | 0.00 | 0.00 | 0.00 | 71 | 1012.7 |
| 20260507111148 | 58 | 305 | 0.0 | 0.9 | 0.00 | 0.00 | 0.00 | 73 | 1012.7 |
| 20260507110639 | 58 | 305 | 0.0 | 0.9 | 0.00 | 0.00 | 0.00 | 73 | 1012.7 |
| 20260507110149 | 58 | 305 | 0.0 | 2.6 | 0.00 | 0.00 | 0.00 | 73 | 1012.7 |
| 20260507105652 | 58 | 308 | 0.0 | 3.5 | 0.00 | 0.00 | 0.00 | 72 | 1012.7 |
| 20260507105142 | 59 | 306 | 0.9 | 3.5 | 0.00 | 0.00 | 0.00 | 72 | 1012.8 |
| 20260507104652 | 59 | 53 | 0.0 | 0.9 | 0.00 | 0.00 | 0.00 | 73 | 1012.8 |
| 20260507104144 | 59 | 52 | 0.0 | 0.0 | 0.00 | 0.00 | 0.00 | 74 | 1012.7 |
| 20260507103656 | 58 | 52 | 0.0 | 1.7 | 0.00 | 0.00 | 0.00 | 74 | 1012.6 |
| 20260507103144 | 58 | 52 | 0.0 | 1.7 | 0.00 | 0.00 | 0.00 | 75 | 1012.6 |
| 20260507102640 | 58 | 55 | 0.0 | 1.7 | 0.00 | 0.00 | 0.00 | 77 | 1012.6 |
| 20260507102153 | 57 | 51 | 0.0 | 2.6 | 0.00 | 0.00 | 0.00 | 78 | 1012.6 |
| 20260507101641 | 57 | 329 | 0.0 | 0.9 | 0.00 | 0.00 | 0.00 | 79 | 1012.5 |
| 20260507101154 | 56 | 329 | 0.0 | 0.9 | 0.00 | 0.00 | 0.00 | 80 | 1012.6 |
| 20260507100643 | 55 | 329 | 0.0 | 0.9 | 0.00 | 0.00 | 0.00 | 79 | 1012.6 |
| 20260507100153 | 55 | 329 | 0.0 | 0.9 | 0.00 | 0.00 | 0.00 | 80 | 1012.5 |
| 20260507095657 | 55 | 326 | 0.0 | 0.9 | 0.00 | 0.00 | 0.00 | 80 | 1012.6 |
| 20260507095149 | 55 | 326 | 0.0 | 1.7 | 0.00 | 0.00 | 0.00 | 80 | 1012.6 |
| 20260507094638 | 55 | 326 | 0.0 | 1.7 | 0.00 | 0.00 | 0.00 | 80 | 1012.5 |
| 20260507094151 | 55 | 326 | 0.0 | 0.9 | 0.00 | 0.00 | 0.00 | 80 | 1012.5 |
| 20260507093641 | 54 | 326 | 0.0 | 2.6 | 0.00 | 0.00 | 0.00 | 80 | 1012.4 |
| 20260507093154 | 54 | 326 | 0.0 | 2.6 | 0.00 | 0.00 | 0.00 | 80 | 1012.3 |
| 20260507092643 | 54 | 32 | 0.0 | 7.0 | 0.00 | 0.00 | 0.00 | 82 | 1012.2 |
| 20260507091644 | 54 | 311 | 0.0 | 3.5 | 0.00 | 0.00 | 0.00 | 84 | 1012.1 |
| 20260507091154 | 54 | 26 | 0.0 | 3.5 | 0.00 | 0.00 | 0.00 | 84 | 1012.1 |
| 20260507090643 | 54 | 323 | 0.0 | 3.5 | 0.00 | 0.00 | 0.00 | 85 | 1012.1 |
| 20260507090153 | 53 | 329 | 0.0 | 3.5 | 0.00 | 0.00 | 0.00 | 86 | 1012.1 |
| 20260507085639 | 53 | 325 | 0.0 | 2.6 | 0.00 | 0.00 | 0.00 | 86 | 1012.0 |
| 20260507085149 | 52 | 324 | 0.0 | 2.6 | 0.00 | 0.00 | 0.00 | 87 | 1012.0 |
| 20260507084638 | 52 | 325 | 0.0 | 2.6 | 0.00 | 0.00 | 0.00 | 87 | 1012.0 |
| 20260507084149 | 52 | 323 | 0.0 | 2.6 | 0.00 | 0.00 | 0.00 | 88 | 1011.9 |
| 20260507083639 | 51 | 323 | 0.0 | 3.5 | 0.00 | 0.00 | 0.00 | 88 | 1012.0 |
| 20260507083151 | 51 | 325 | 0.0 | 3.5 | 0.00 | 0.00 | 0.00 | 88 | 1011.9 |
| 20260507082642 | 51 | 326 | 0.0 | 0.9 | 0.00 | 0.00 | 0.00 | 88 | 1011.9 |
| 20260507082151 | 51 | 326 | 0.0 | 0.9 | 0.00 | 0.00 | 0.00 | 88 | 1011.8 |
| 20260507081645 | 51 | 326 | 0.0 | 1.7 | 0.00 | 0.00 | 0.00 | 89 | 1011.9 |
| 20260507081157 | 51 | 326 | 0.0 | 2.6 | 0.00 | 0.00 | 0.00 | 89 | 1011.8 |
| 20260507080647 | 51 | 326 | 0.0 | 0.0 | 0.00 | 0.00 | 0.00 | 89 | 1011.8 |
| 20260507080158 | 50 | 326 | 0.0 | 1.7 | 0.00 | 0.00 | 0.00 | 89 | 1011.8 |
| 20260507075641 | 50 | 326 | 0.0 | 1.7 | 0.00 | 0.00 | 0.00 | 89 | 1011.7 |
| 20260507075151 | 50 | 327 | 0.0 | 1.7 | 0.00 | 0.00 | 0.00 | 89 | 1011.5 |
| 20260507074645 | 50 | 327 | 0.0 | 2.6 | 0.00 | 0.00 | 0.00 | 89 | 1011.6 |
| 20260507074151 | 50 | 327 | 0.0 | 2.6 | 0.00 | 0.00 | 0.00 | 90 | 1011.5 |
| 20260507073642 | 50 | 327 | 0.0 | 0.9 | 0.00 | 0.00 | 0.00 | 89 | 1011.5 |
| 20260507073152 | 49 | 327 | 0.0 | 0.9 | 0.00 | 0.00 | 0.00 | 89 | 1011.3 |
| 20260507072644 | 49 | 330 | 0.0 | 1.7 | 0.00 | 0.00 | 0.00 | 90 | 1011.4 |
| 20260507072153 | 49 | 330 | 0.0 | 1.7 | 0.00 | 0.00 | 0.00 | 90 | 1011.3 |
| 20260507071643 | 49 | 334 | 0.0 | 0.9 | 0.00 | 0.00 | 0.00 | 90 | 1011.3 |
| 20260507071155 | 49 | 334 | 0.0 | 0.9 | 0.00 | 0.00 | 0.00 | 90 | 1011.2 |
| 20260507070644 | 49 | 334 | 0.0 | 0.0 | 0.00 | 0.00 | 0.00 | 90 | 1011.3 |
| 20260507070156 | 49 | 334 | 0.0 | 0.0 | 0.00 | 0.00 | 0.00 | 90 | 1011.2 |
| 20260507065658 | 49 | 334 | 0.0 | 0.0 | 0.00 | 0.00 | 0.00 | 90 | 1011.2 |
| 20260507065149 | 49 | 334 | 0.0 | 0.9 | 0.00 | 0.00 | 0.00 | 90 | 1011.2 |
| 20260507064638 | 49 | 334 | 0.0 | 1.7 | 0.00 | 0.00 | 0.00 | 90 | 1011.2 |
| 20260507064150 | 49 | 334 | 0.0 | 1.7 | 0.00 | 0.00 | 0.00 | 90 | 1011.1 |
| 20260507063641 | 49 | 334 | 0.0 | 1.7 | 0.00 | 0.00 | 0.00 | 90 | 1011.1 |
| 20260507063151 | 49 | 334 | 0.0 | 1.7 | 0.00 | 0.00 | 0.00 | 90 | 1011.0 |
| 20260507062641 | 49 | 334 | 0.0 | 0.0 | 0.00 | 0.00 | 0.00 | 90 | 1011.0 |
| 20260507062151 | 48 | 334 | 0.0 | 0.0 | 0.00 | 0.00 | 0.00 | 90 | 1010.9 |
| 20260507061643 | 48 | 334 | 0.0 | 0.9 | 0.00 | 0.00 | 0.00 | 90 | 1010.8 |
| 20260507061153 | 48 | 334 | 0.0 | 0.9 | 0.00 | 0.00 | 0.00 | 91 | 1010.7 |
| 20260507060646 | 48 | 334 | 0.0 | 1.7 | 0.00 | 0.00 | 0.00 | 91 | 1010.5 |
| 20260507060157 | 48 | 334 | 0.0 | 1.7 | 0.00 | 0.00 | 0.00 | 91 | 1010.5 |
| 20260507055641 | 48 | 334 | 0.0 | 0.0 | 0.00 | 0.00 | 0.00 | 91 | 1010.4 |
| 20260507055156 | 48 | 334 | 0.0 | 2.6 | 0.00 | 0.00 | 0.00 | 91 | 1010.3 |
| 20260507054642 | 48 | 334 | 0.0 | 2.6 | 0.00 | 0.00 | 0.00 | 91 | 1010.2 |
| 20260507054153 | 48 | 335 | 0.0 | 1.7 | 0.00 | 0.00 | 0.00 | 91 | 1010.1 |
| 20260507053643 | 48 | 335 | 0.0 | 1.7 | 0.00 | 0.00 | 0.00 | 91 | 1010.1 |
| 20260507053154 | 48 | 335 | 0.0 | 0.0 | 0.00 | 0.00 | 0.00 | 91 | 1010.1 |
| 20260507052647 | 48 | 335 | 0.0 | 1.7 | 0.00 | 0.00 | 0.00 | 91 | 1010.0 |
| 20260507052156 | 48 | 335 | 0.0 | 0.9 | 0.00 | 0.00 | 0.00 | 91 | 1009.9 |
| 20260507051647 | 48 | 335 | 0.0 | 0.9 | 0.00 | 0.00 | 0.00 | 91 | 1009.9 |
| 20260507051156 | 48 | 335 | 0.0 | 1.7 | 0.00 | 0.00 | 0.00 | 91 | 1009.8 |
| 20260507050647 | 48 | 335 | 0.0 | 1.7 | 0.00 | 0.00 | 0.00 | 91 | 1009.7 |
| 20260507050158 | 48 | 335 | 0.0 | 0.0 | 0.00 | 0.00 | 0.00 | 91 | 1009.7 |
| 20260507045644 | 48 | 335 | 0.0 | 0.0 | 0.00 | 0.00 | 0.00 | 91 | 1009.6 |
| 20260507045153 | 48 | 335 | 0.0 | 0.9 | 0.00 | 0.00 | 0.00 | 91 | 1009.5 |
| 20260507044646 | 48 | 335 | 0.0 | 0.9 | 0.00 | 0.00 | 0.00 | 91 | 1009.5 |
| 20260507044154 | 48 | 335 | 0.0 | 0.9 | 0.00 | 0.00 | 0.00 | 91 | 1009.5 |
| 20260507043644 | 48 | 335 | 0.0 | 0.9 | 0.00 | 0.00 | 0.00 | 91 | 1009.4 |
| 20260507043156 | 48 | 335 | 0.0 | 0.9 | 0.00 | 0.00 | 0.00 | 91 | 1009.3 |
| 20260507042646 | 48 | 335 | 0.0 | 0.9 | 0.00 | 0.00 | 0.00 | 91 | 1009.3 |
| 20260507042156 | 48 | 335 | 0.0 | 0.9 | 0.00 | 0.00 | 0.00 | 91 | 1009.2 |
| 20260507041648 | 48 | 335 | 0.0 | 0.9 | 0.00 | 0.00 | 0.00 | 91 | 1009.1 |
| 20260507041141 | 48 | 335 | 0.0 | 0.0 | 0.00 | 0.00 | 0.00 | 91 | 1009.1 |
| 20260507040650 | 48 | 335 | 0.0 | 1.7 | 0.00 | 0.00 | 0.00 | 91 | 1009.1 |
| 20260507040201 | 48 | 335 | 0.0 | 1.7 | 0.00 | 0.00 | 0.00 | 91 | 1009.1 |
| 20260507035648 | 48 | 335 | 0.0 | 1.7 | 0.00 | 0.00 | 0.00 | 91 | 1009.0 |
| 20260507035158 | 48 | 335 | 0.0 | 0.0 | 0.00 | 0.00 | 0.00 | 91 | 1009.0 |
| 20260507034649 | 48 | 334 | 0.0 | 0.0 | 0.00 | 0.00 | 0.00 | 91 | 1009.0 |
| 20260507034139 | 48 | 335 | 0.0 | 0.9 | 0.00 | 0.00 | 0.00 | 91 | 1009.0 |
| 20260507033650 | 48 | 335 | 0.0 | 0.9 | 0.00 | 0.00 | 0.00 | 91 | 1009.0 |
| 20260507033141 | 48 | 335 | 0.0 | 0.9 | 0.00 | 0.00 | 0.00 | 91 | 1008.9 |
| 20260507032652 | 48 | 335 | 0.0 | 0.9 | 0.00 | 0.00 | 0.00 | 91 | 1008.9 |
| 20260507032143 | 48 | 335 | 0.0 | 0.9 | 0.00 | 0.00 | 0.00 | 91 | 1008.9 |
| 20260507031652 | 48 | 335 | 0.0 | 0.0 | 0.00 | 0.00 | 0.00 | 91 | 1008.9 |
| 20260507031144 | 48 | 335 | 0.0 | 0.0 | 0.00 | 0.00 | 0.00 | 91 | 1008.9 |
| 20260507030506 | 48 | 335 | 0.0 | 0.0 | 0.00 | 0.00 | 0.00 | 91 | 1008.9 |
| 20260507025648 | 48 | 335 | 0.0 | 0.0 | 0.00 | 0.00 | 0.00 | 91 | 1008.8 |
| 20260507025138 | 48 | 335 | 0.0 | 0.0 | 0.00 | 0.00 | 0.00 | 90 | 1008.8 |
| 20260507024649 | 48 | 335 | 0.0 | 0.0 | 0.00 | 0.00 | 0.00 | 90 | 1008.8 |
| 20260507024142 | 48 | 335 | 0.0 | 0.0 | 0.00 | 0.00 | 0.00 | 90 | 1008.8 |
| 20260507023649 | 48 | 335 | 0.0 | 0.0 | 0.00 | 0.00 | 0.00 | 90 | 1008.8 |
| 20260507023141 | 48 | 335 | 0.0 | 0.0 | 0.00 | 0.00 | 0.00 | 90 | 1008.7 |
| 20260507022651 | 48 | 335 | 0.0 | 0.0 | 0.00 | 0.00 | 0.00 | 90 | 1008.7 |
| 20260507022142 | 49 | 335 | 0.0 | 0.9 | 0.00 | 0.00 | 0.00 | 90 | 1008.7 |
| 20260507021650 | 49 | 335 | 0.0 | 0.0 | 0.00 | 0.00 | 0.00 | 90 | 1008.7 |
| 20260507021141 | 49 | 335 | 0.0 | 0.0 | 0.00 | 0.00 | 0.00 | 90 | 1008.7 |
| 20260507020503 | 49 | 335 | 0.0 | 0.9 | 0.00 | 0.00 | 0.00 | 90 | 1008.6 |
| 20260507015645 | 49 | 335 | 0.0 | 1.7 | 0.00 | 0.00 | 0.00 | 90 | 1008.5 |
| 20260507015141 | 49 | 335 | 0.0 | 1.7 | 0.00 | 0.00 | 0.00 | 89 | 1008.5 |
| 20260507014651 | 49 | 335 | 0.0 | 0.0 | 0.00 | 0.00 | 0.00 | 89 | 1008.4 |
| 20260507014140 | 49 | 335 | 0.0 | 0.0 | 0.00 | 0.00 | 0.00 | 89 | 1008.3 |
| 20260507013651 | 49 | 335 | 0.0 | 0.0 | 0.00 | 0.00 | 0.00 | 89 | 1008.3 |
| 20260507013143 | 49 | 335 | 0.0 | 0.0 | 0.00 | 0.00 | 0.00 | 89 | 1008.2 |
| 20260507012652 | 49 | 335 | 0.0 | 0.9 | 0.00 | 0.00 | 0.00 | 89 | 1008.2 |
| 20260507012144 | 49 | 335 | 0.0 | 0.9 | 0.00 | 0.00 | 0.00 | 89 | 1008.2 |
| 20260507011655 | 49 | 335 | 0.0 | 0.9 | 0.00 | 0.00 | 0.00 | 89 | 1008.2 |
| 20260507011144 | 49 | 335 | 0.0 | 0.9 | 0.00 | 0.00 | 0.00 | 89 | 1008.2 |
| 20260507010658 | 49 | 335 | 0.0 | 0.9 | 0.00 | 0.00 | 0.00 | 89 | 1008.1 |
| 20260507010145 | 49 | 335 | 0.0 | 0.9 | 0.00 | 0.00 | 0.00 | 88 | 1008.1 |
| 20260507005649 | 49 | 335 | 0.0 | 0.9 | 0.00 | 0.00 | 0.00 | 88 | 1008.2 |
| 20260507005139 | 49 | 335 | 0.0 | 0.0 | 0.00 | 0.00 | 0.00 | 88 | 1008.1 |
| 20260507004650 | 49 | 335 | 0.0 | 0.0 | 0.00 | 0.00 | 0.00 | 88 | 1008.1 |
| 20260507004142 | 49 | 335 | 0.0 | 1.7 | 0.00 | 0.00 | 0.00 | 88 | 1008.1 |
| 20260507003654 | 49 | 335 | 0.0 | 2.6 | 0.00 | 0.00 | 0.00 | 88 | 1008.1 |
| 20260507003143 | 49 | 335 | 0.0 | 0.9 | 0.00 | 0.00 | 0.00 | 88 | 1008.0 |
| 20260507002654 | 49 | 335 | 0.0 | 1.7 | 0.00 | 0.00 | 0.00 | 88 | 1008.0 |
| 20260507002144 | 49 | 335 | 0.0 | 1.7 | 0.00 | 0.00 | 0.00 | 88 | 1008.0 |
| 20260507001654 | 50 | 335 | 0.0 | 0.9 | 0.00 | 0.00 | 0.00 | 88 | 1008.0 |
| 20260507001145 | 50 | 335 | 0.0 | 0.9 | 0.00 | 0.00 | 0.00 | 88 | 1008.0 |
| 20260507000654 | 50 | 335 | 0.0 | 3.5 | 0.00 | 0.00 | 0.00 | 87 | 1008.0 |
| 20260507000145 | 50 | 335 | 0.0 | 3.5 | 0.00 | 0.00 | 0.00 | 87 | 1008.0 |
| 20260506235649 | 50 | 338 | 0.0 | 1.7 | 0.00 | 0.00 | 0.00 | 87 | 1008.0 |
| 20260506235140 | 50 | 338 | 0.0 | 0.9 | 0.00 | 0.00 | 0.00 | 87 | 1007.9 |
| 20260506234650 | 50 | 338 | 0.0 | 1.7 | 0.00 | 0.00 | 0.00 | 87 | 1007.9 |
| 20260506234144 | 50 | 338 | 0.0 | 1.7 | 0.00 | 0.00 | 0.00 | 87 | 1007.9 |
| 20260506233654 | 50 | 338 | 0.0 | 0.9 | 0.00 | 0.00 | 0.00 | 87 | 1007.8 |
| 20260506233144 | 50 | 338 | 0.0 | 1.7 | 0.00 | 0.00 | 0.00 | 87 | 1007.8 |
| 20260506232653 | 50 | 338 | 0.0 | 1.7 | 0.00 | 0.00 | 0.00 | 87 | 1007.8 |
| 20260506232144 | 50 | 338 | 0.0 | 1.7 | 0.00 | 0.00 | 0.00 | 87 | 1007.8 |
| 20260506231655 | 50 | 339 | 0.0 | 0.9 | 0.00 | 0.00 | 0.00 | 87 | 1007.7 |
| 20260506231145 | 50 | 341 | 0.0 | 0.9 | 0.00 | 0.00 | 0.00 | 87 | 1007.7 |
| 20260506230656 | 50 | 341 | 0.0 | 0.9 | 0.00 | 0.00 | 0.00 | 87 | 1007.7 |
| 20260506230145 | 50 | 341 | 0.0 | 0.9 | 0.00 | 0.00 | 0.00 | 87 | 1007.6 |
| 20260506225650 | 50 | 341 | 0.0 | 0.0 | 0.00 | 0.00 | 0.00 | 87 | 1007.6 |
| 20260506225141 | 50 | 341 | 0.0 | 0.9 | 0.00 | 0.00 | 0.00 | 87 | 1007.6 |
| 20260506224651 | 50 | 341 | 0.0 | 0.9 | 0.00 | 0.00 | 0.00 | 86 | 1007.5 |
| 20260506224140 | 50 | 342 | 0.0 | 0.9 | 0.00 | 0.00 | 0.00 | 86 | 1007.5 |
| 20260506223650 | 50 | 342 | 0.0 | 0.9 | 0.00 | 0.00 | 0.00 | 86 | 1007.5 |
| 20260506223141 | 50 | 341 | 0.0 | 0.9 | 0.00 | 0.00 | 0.00 | 86 | 1007.4 |
| 20260506222142 | 50 | 311 | 0.0 | 0.0 | 0.00 | 0.00 | 0.00 | 86 | 1007.3 |
| 20260506221652 | 50 | 310 | 0.0 | 0.9 | 0.00 | 0.00 | 0.00 | 86 | 1007.3 |
| 20260506221142 | 50 | 311 | 0.0 | 0.9 | 0.00 | 0.00 | 0.00 | 86 | 1007.3 |
| 20260506220506 | 50 | 311 | 0.0 | 0.9 | 0.00 | 0.00 | 0.00 | 86 | 1007.3 |
| 20260506215645 | 50 | 311 | 0.0 | 0.0 | 0.00 | 0.00 | 0.00 | 86 | 1007.3 |
| 20260506215156 | 50 | 311 | 0.0 | 0.9 | 0.00 | 0.00 | 0.00 | 86 | 1007.2 |
| 20260506214646 | 51 | 311 | 0.0 | 1.7 | 0.00 | 0.00 | 0.00 | 86 | 1007.2 |
| 20260506214156 | 51 | 311 | 0.0 | 1.7 | 0.00 | 0.00 | 0.00 | 86 | 1007.2 |
| 20260506213646 | 51 | 311 | 0.0 | 0.9 | 0.00 | 0.00 | 0.00 | 86 | 1007.2 |
| 20260506213157 | 51 | 311 | 0.0 | 1.7 | 0.00 | 0.00 | 0.00 | 86 | 1007.1 |
| 20260506212650 | 51 | 311 | 0.0 | 3.5 | 0.00 | 0.00 | 0.00 | 86 | 1007.0 |
| 20260506212140 | 51 | 311 | 0.0 | 3.5 | 0.00 | 0.00 | 0.00 | 86 | 1007.0 |
| 20260506211649 | 51 | 315 | 0.0 | 2.6 | 0.00 | 0.00 | 0.00 | 86 | 1007.0 |
| 20260506211141 | 51 | 317 | 0.0 | 1.7 | 0.00 | 0.00 | 0.00 | 86 | 1006.9 |
| 20260506210651 | 51 | 318 | 0.0 | 1.7 | 0.00 | 0.00 | 0.00 | 86 | 1007.0 |
| 20260506210159 | 51 | 319 | 0.0 | 1.7 | 0.00 | 0.00 | 0.00 | 86 | 1006.9 |
| 20260506205644 | 51 | 319 | 0.0 | 0.9 | 0.00 | 0.00 | 0.00 | 86 | 1006.9 |
| 20260506205154 | 51 | 319 | 0.0 | 1.7 | 0.00 | 0.00 | 0.00 | 87 | 1006.9 |
| 20260506204648 | 51 | 319 | 0.0 | 3.5 | 0.00 | 0.00 | 0.00 | 87 | 1006.7 |
| 20260506204141 | 51 | 24 | 0.0 | 0.9 | 0.00 | 0.00 | 0.00 | 87 | 1006.7 |
| 20260506203650 | 51 | 24 | 0.0 | 1.7 | 0.00 | 0.00 | 0.00 | 87 | 1006.7 |
| 20260506203141 | 51 | 24 | 0.0 | 1.7 | 0.00 | 0.00 | 0.00 | 87 | 1006.7 |
| 20260506202651 | 52 | 26 | 0.0 | 0.9 | 0.00 | 0.00 | 0.00 | 87 | 1006.6 |
| 20260506202141 | 52 | 27 | 0.0 | 0.9 | 0.00 | 0.00 | 0.00 | 87 | 1006.6 |
| 20260506201653 | 52 | 28 | 0.0 | 3.5 | 0.00 | 0.00 | 0.00 | 87 | 1006.5 |
| 20260506201147 | 52 | 28 | 0.0 | 3.5 | 0.00 | 0.00 | 0.00 | 87 | 1006.5 |
| 20260506200655 | 52 | 316 | 0.0 | 1.7 | 0.00 | 0.00 | 0.00 | 87 | 1006.4 |
| 20260506200145 | 52 | 316 | 0.0 | 1.7 | 0.00 | 0.00 | 0.00 | 87 | 1006.3 |
| 20260506195649 | 52 | 316 | 0.0 | 0.9 | 0.00 | 0.00 | 0.00 | 87 | 1006.2 |
| 20260506195157 | 52 | 317 | 0.0 | 1.7 | 0.00 | 0.00 | 0.00 | 87 | 1006.2 |
| 20260506194648 | 52 | 318 | 0.0 | 1.7 | 0.00 | 0.00 | 0.00 | 87 | 1006.2 |
| 20260506194139 | 52 | 318 | 0.0 | 0.9 | 0.00 | 0.00 | 0.00 | 88 | 1006.0 |
| 20260506193649 | 52 | 318 | 0.0 | 0.9 | 0.00 | 0.00 | 0.00 | 88 | 1005.9 |
| 20260506193140 | 52 | 320 | 0.0 | 2.6 | 0.00 | 0.00 | 0.00 | 88 | 1005.9 |
| 20260506192651 | 52 | 320 | 0.0 | 2.6 | 0.00 | 0.00 | 0.00 | 88 | 1005.9 |
| 20260506192141 | 52 | 320 | 0.0 | 0.9 | 0.00 | 0.00 | 0.00 | 88 | 1005.8 |
| 20260506191651 | 52 | 320 | 0.0 | 0.9 | 0.00 | 0.00 | 0.00 | 88 | 1005.7 |
| 20260506191142 | 53 | 320 | 0.0 | 0.9 | 0.00 | 0.00 | 0.00 | 88 | 1005.7 |
| 20260506190502 | 53 | 320 | 0.0 | 0.9 | 0.00 | 0.00 | 0.00 | 88 | 1005.7 |
| 20260506190203 | 53 | 320 | 0.0 | 0.9 | 0.00 | 0.00 | 0.00 | 87 | 1005.7 |
| 20260506185644 | 53 | 320 | 0.0 | 1.7 | 0.00 | 0.00 | 0.00 | 88 | 1005.6 |
| 20260506185155 | 53 | 320 | 0.0 | 1.7 | 0.00 | 0.00 | 0.00 | 87 | 1005.5 |
| 20260506184645 | 54 | 320 | 0.0 | 0.9 | 0.00 | 0.00 | 0.00 | 87 | 1005.5 |
| 20260506184141 | 54 | 320 | 0.0 | 0.9 | 0.00 | 0.00 | 0.00 | 87 | 1005.5 |
| 20260506183651 | 54 | 320 | 0.0 | 2.6 | 0.00 | 0.00 | 0.00 | 87 | 1005.4 |
| 20260506183142 | 54 | 320 | 0.0 | 2.6 | 0.00 | 0.00 | 0.00 | 87 | 1005.3 |
| 20260506182652 | 54 | 26 | 0.0 | 4.3 | 0.00 | 0.00 | 0.00 | 87 | 1005.1 |
| 20260506182141 | 54 | 26 | 0.0 | 4.3 | 0.00 | 0.00 | 0.00 | 87 | 1005.1 |
| 20260506181652 | 54 | 24 | 0.0 | 1.7 | 0.00 | 0.00 | 0.00 | 87 | 1005.0 |
| 20260506181142 | 55 | 24 | 0.0 | 1.7 | 0.00 | 0.00 | 0.00 | 87 | 1005.0 |
| 20260506180503 | 55 | 24 | 0.0 | 4.3 | 0.00 | 0.00 | 0.00 | 86 | 1004.9 |
| 20260506175650 | 55 | 321 | 0.0 | 1.7 | 0.00 | 0.00 | 0.00 | 86 | 1004.7 |
| 20260506175156 | 56 | 321 | 0.0 | 1.7 | 0.00 | 0.00 | 0.00 | 86 | 1004.7 |
| 20260506174647 | 56 | 318 | 0.0 | 1.7 | 0.00 | 0.00 | 0.00 | 86 | 1004.7 |
| 20260506174201 | 56 | 318 | 0.0 | 1.7 | 0.00 | 0.00 | 0.00 | 86 | 1004.6 |
| 20260506173648 | 56 | 318 | 0.0 | 3.5 | 0.00 | 0.00 | 0.00 | 86 | 1004.5 |
| 20260506173141 | 57 | 318 | 0.0 | 3.5 | 0.00 | 0.00 | 0.00 | 85 | 1004.5 |
| 20260506172649 | 57 | 265 | 0.0 | 3.5 | 0.00 | 0.00 | 0.00 | 85 | 1004.4 |
| 20260506172141 | 57 | 265 | 0.0 | 3.5 | 0.00 | 0.00 | 0.00 | 85 | 1004.4 |
| 20260506171651 | 57 | 263 | 0.0 | 3.5 | 0.00 | 0.00 | 0.00 | 85 | 1004.3 |
| 20260506171144 | 57 | 263 | 0.0 | 3.5 | 0.00 | 0.00 | 0.00 | 84 | 1004.2 |
| 20260506170505 | 57 | 263 | 0.0 | 3.5 | 0.00 | 0.00 | 0.00 | 84 | 1004.1 |
| 20260506165647 | 58 | 261 | 0.9 | 7.0 | 0.00 | 0.00 | 0.00 | 83 | 1004.1 |
| 20260506165156 | 58 | 239 | 0.0 | 7.0 | 0.00 | 0.00 | 0.00 | 83 | 1004.0 |
| 20260506164645 | 58 | 276 | 0.9 | 2.6 | 0.00 | 0.00 | 0.00 | 83 | 1004.0 |
| 20260506164155 | 58 | 276 | 0.0 | 2.6 | 0.00 | 0.00 | 0.00 | 83 | 1004.0 |
| 20260506163644 | 58 | 277 | 0.0 | 2.6 | 0.00 | 0.00 | 0.00 | 83 | 1004.0 |
| 20260506163157 | 59 | 277 | 0.0 | 4.3 | 0.00 | 0.00 | 0.00 | 83 | 1004.0 |
| 20260506162647 | 59 | 279 | 0.9 | 4.3 | 0.00 | 0.00 | 0.00 | 83 | 1003.9 |
| 20260506162200 | 59 | 246 | 0.9 | 4.3 | 0.00 | 0.00 | 0.00 | 83 | 1003.9 |
| 20260506161646 | 59 | 229 | 0.0 | 4.3 | 0.00 | 0.00 | 0.00 | 83 | 1003.9 |
| 20260506161156 | 59 | 227 | 0.0 | 4.3 | 0.00 | 0.00 | 0.00 | 83 | 1003.8 |
| 20260506160648 | 59 | 227 | 0.0 | 2.6 | 0.00 | 0.00 | 0.00 | 83 | 1003.8 |
| 20260506160159 | 59 | 227 | 0.0 | 2.6 | 0.00 | 0.00 | 0.00 | 83 | 1003.8 |
| 20260506155643 | 59 | 227 | 0.0 | 0.9 | 0.00 | 0.00 | 0.00 | 83 | 1003.8 |
| 20260506155153 | 59 | 227 | 0.0 | 0.9 | 0.00 | 0.00 | 0.00 | 83 | 1003.8 |
| 20260506154644 | 59 | 227 | 0.0 | 1.7 | 0.00 | 0.00 | 0.00 | 83 | 1003.8 |
| 20260506154156 | 59 | 227 | 0.0 | 2.6 | 0.00 | 0.00 | 0.00 | 83 | 1003.7 |
| 20260506153644 | 60 | 227 | 0.0 | 3.5 | 0.00 | 0.00 | 0.00 | 83 | 1003.8 |
| 20260506153155 | 60 | 226 | 0.0 | 5.2 | 0.00 | 0.00 | 0.00 | 83 | 1003.7 |
| 20260506152646 | 60 | 229 | 1.7 | 4.3 | 0.00 | 0.00 | 0.00 | 83 | 1003.7 |
| 20260506152154 | 60 | 232 | 0.0 | 3.5 | 0.00 | 0.00 | 0.00 | 82 | 1003.7 |
| 20260506151645 | 61 | 232 | 0.9 | 5.2 | 0.00 | 0.00 | 0.00 | 82 | 1003.7 |